RH
71 76 78 81 82 84 87 87 86 80 75 71 67 61 57 57 57 61 68 70 69 68 67 65 65 65 66 65 66 67 65 62 61 61 63 62 62 64 64 63 66 69 71 72 71 70 70 70 69 69 68 68 70 74 74 70 70 70 70 67 62 60 58 57 55 55 56 57 56 52 48 48 49 49 53 56 55 52 48 50 52 56 59 58 57 56 54 53 52 53 56 58 56 52 50 50 49
72 75 77 79 81 83 85 88 85 80 75 71 66 59 56 56 57 60 65 69 67 65 65 65 65 66 66 64 62 59 58 62 59 56 58 59 57 57 59 60 63 66 69 70 67 66 68 69 67 66 64 64 65 70 74 73 73 69 66 63 59 58 57 57 57 57 58 58 58 54 49 49 50 51 55 58 58 57 54 55 54 55 58 57 56 55 54 53 51 51 56 60 62 58 51 46 44
72 75 77 79 81 83 88 89 84 80 75 70 63 56 56 56 55 57 62 66 67 64 62 64 65 64 63 60 58 55 55 59 57 56 59 57 53 54 57 58 61 64 66 67 66 66 68 67 63 62 60 60 61 64 70 75 75 67 61 59 57 56 55 55 57 58 59 56 54 53 50 50 50 52 55 57 58 59 58 59 57 56 58 57 54 53 52 52 50 48 51 58 63 62 55 50 44
70 74 77 80 82 86 90 90 84 79 74 68 60 56 58 55 53 55 60 65 67 66 62 61 61 61 59 56 56 55 55 58 57 58 58 55 51 51 55 57 60 63 63 63 64 65 66 63 60 59 58 59 60 60 65 70 70 64 58 57 56 56 54 55 57 58 58 55 53 52 48 48 49 50 54 57 58 58 59 60 59 59 59 56 53 51 52 52 49 47 51 55 58 60 60 57 49
71 75 79 80 83 88 91 89 86 79 73 66 58 57 58 54 54 55 60 66 67 65 62 60 58 58 56 55 56 55 55 57 57 58 55 52 49 48 52 55 57 60 61 60 61 61 60 58 58 58 58 58 59 58 59 62 63 59 56 57 57 56 55 57 59 58 56 57 57 54 49 46 49 51 53 57 58 58 59 61 62 61 59 55 51 50 51 51 48 47 50 53 54 53 54 54 49
70 74 78 79 83 88 88 87 85 79 73 65 58 59 58 54 56 57 60 64 65 64 62 59 55 54 53 56 57 56 56 55 55 55 52 49 46 47 49 52 54 55 57 57 57 57 57 56 57 57 57 58 57 56 55 57 57 55 55 57 56 54 53 55 59 59 58 59 59 56 51 48 50 52 54 56 57 59 60 61 64 62 58 53 52 51 51 49 47 46 48 51 51 48 46 46 42
70 73 75 77 82 86 86 86 84 79 73 65 59 59 57 55 56 57 58 61 64 64 62 58 54 51 52 55 55 57 56 53 54 52 49 47 45 46 49 50 51 52 54 55 55 55 57 56 56 56 57 57 55 55 55 55 54 54 54 55 55 53 52 53 56 58 59 60 60 57 54 54 56 55 54 56 58 60 59 61 63 61 56 53 52 52 51 48 46 46 48 51 49 47 44 38 33
69 73 74 75 78 83 86 85 84 78 72 66 60 59 57 55 55 56 56 57 60 61 61 58 53 52 54 55 54 58 56 52 53 51 49 48 46 47 48 50 51 54 55 55 55 55 58 57 55 56 55 55 55 55 54 54 54 53 54 54 54 53 53 54 54 55 57 58 60 58 54 57 61 60 57 55 58 59 59 61 62 60 55 52 51 50 49 47 45 45 49 51 48 44 39 33 29
69 72 74 75 74 81 87 85 85 79 72 66 60 60 58 55 55 55 54 54 55 57 60 58 53 52 56 56 55 59 56 53 53 51 51 49 47 48 49 51 51 54 55 55 56 57 58 56 55 55 54 54 55 56 56 55 55 56 57 56 55 55 55 56 55 55 56 55 58 58 55 55 56 58 60 56 57 59 59 61 62 59 55 52 50 47 45 45 45 46 49 50 45 37 34 31 29
67 70 72 74 73 80 87 85 85 80 74 65 59 60 59 56 54 52 51 52 53 55 59 59 55 55 56 55 56 58 58 55 53 54 53 51 50 49 50 51 52 53 55 56 57 58 58 56 55 55 55 57 57 58 59 59 60 61 62 61 60 58 58 57 56 56 57 56 57 59 56 56 54 54 59 59 59 61 59 60 61 56 52 51 48 45 46 44 46 48 50 48 42 36 32 31 30
65 68 71 74 72 78 86 87 87 83 75 64 59 61 60 56 52 50 50 52 53 53 57 58 57 59 58 55 56 58 59 57 55 56 54 52 52 52 53 54 55 56 57 59 59 61 61 61 59 58 59 61 61 60 61 62 62 62 61 62 61 60 59 58 57 57 57 58 58 58 58 58 56 52 57 62 60 62 62 62 60 53 50 49 44 43 45 45 46 50 50 45 39 35 33 32 30
64 66 68 73 73 76 82 86 88 86 76 62 58 61 60 55 51 51 51 52 53 52 54 56 58 61 58 53 54 56 59 58 56 55 54 54 54 53 53 54 57 57 59 60 60 61 62 64 63 62 62 62 63 62 62 64 63 61 61 61 60 60 60 59 59 59 58 58 57 58 60 60 57 55 59 62 60 63 66 65 59 52 49 43 38 38 42 44 46 50 47 43 39 35 34 33 29
62 64 65 70 72 75 79 82 85 86 79 64 59 62 60 56 53 52 51 52 50 49 53 56 57 60 58 54 55 56 57 57 54 54 56 56 55 53 53 54 57 59 61 61 61 62 63 64 63 63 63 62 62 64 65 65 64 63 63 62 61 61 60 61 62 63 63 60 58 60 62 62 58 57 60 62 63 67 68 67 59 54 49 39 35 36 39 43 47 50 44 40 40 35 33 32 28
61 62 64 69 71 73 76 80 82 85 82 67 61 64 61 58 55 53 51 49 48 50 54 55 55 58 59 54 53 55 55 54 52 54 56 55 54 55 55 56 59 61 63 63 64 65 65 63 62 64 64 61 61 63 66 66 64 63 65 64 62 62 61 63 65 67 67 62 61 61 62 65 61 59 63 64 65 65 63 63 60 55 47 37 35 35 39 44 48 49 43 39 39 35 32 29 28
61 61 62 68 72 72 74 80 80 83 83 68 63 66 62 61 56 53 50 48 48 52 53 52 52 55 57 53 51 54 53 52 52 53 54 55 57 58 58 59 61 62 63 64 66 67 67 64 62 64 63 62 61 63 66 65 64 64 65 66 63 61 62 65 68 70 69 64 63 61 63 67 62 60 63 66 67 62 56 54 52 48 40 34 34 34 39 45 47 46 41 36 36 34 31 28 29
62 60 60 67 73 73 74 79 79 82 82 69 66 68 63 62 57 52 50 49 50 51 50 49 50 52 56 54 53 55 54 54 52 51 54 58 61 60 61 62 63 63 63 65 67 67 67 65 63 64 63 61 61 63 66 64 65 66 66 67 65 63 63 66 68 70 70 69 64 61 65 67 63 60 62 68 69 59 50 44 40 39 35 32 31 34 40 44 47 43 35 32 33 33 30 28 30
61 60 61 65 71 74 74 76 77 82 83 70 70 71 63 62 58 53 51 50 50 49 49 50 49 50 54 54 53 55 57 55 52 52 58 61 61 62 64 64 64 65 65 66 67 67 66 65 64 63 61 62 63 65 66 66 67 67 68 70 70 67 67 70 70 70 71 70 67 63 65 66 62 61 64 67 62 49 41 36 35 35 32 30 31 34 39 43 45 39 32 31 33 32 29 29 31
58 60 62 65 68 72 74 76 76 80 81 71 72 73 65 63 59 54 51 50 51 50 50 50 50 51 51 50 52 57 56 53 52 56 61 62 62 63 66 67 68 68 67 66 67 68 67 65 65 62 60 62 65 66 66 67 69 69 72 72 73 72 72 73 72 71 70 69 67 66 66 65 62 62 66 63 51 39 33 33 35 33 30 30 30 33 38 41 40 36 32 33 33 30 28 29 31
56 59 62 66 68 71 73 77 79 82 82 73 74 75 68 66 62 56 49 48 50 49 50 49 51 53 52 52 55 60 57 53 54 57 60 62 64 66 68 71 73 72 68 67 68 68 68 66 65 62 60 62 63 65 67 67 69 72 73 74 73 74 74 73 73 72 70 68 67 67 66 64 62 65 67 58 43 35 33 34 33 30 30 30 30 33 38 39 37 33 32 33 32 29 28 29 32
57 60 64 66 68 72 75 80 86 88 83 75 76 76 72 69 65 58 49 45 46 46 48 48 50 53 54 55 57 60 56 54 57 58 59 61 65 67 70 72 74 72 68 67 67 68 68 67 65 63 62 62 63 65 66 67 69 70 74 76 75 74 74 73 73 72 70 69 69 68 65 62 64 66 63 52 40 35 34 33 30 28 30 30 31 35 38 38 35 33 33 33 31 28 28 30 33
56 60 63 66 70 75 79 84 91 93 84 76 78 78 75 72 67 59 49 44 43 44 47 47 49 52 53 55 57 58 57 57 60 60 60 61 65 67 68 68 68 66 64 64 66 68 68 67 66 64 64 64 64 66 66 67 70 71 74 77 76 75 75 73 72 72 70 69 68 65 60 60 63 64 59 48 38 35 33 30 28 29 30 30 33 36 39 38 35 32 33 33 31 28 28 31 34
53 59 64 66 70 76 84 90 93 94 85 78 80 79 77 73 68 61 52 47 44 43 47 48 49 52 54 54 55 58 59 61 61 61 60 63 66 67 65 64 63 61 62 64 65 67 68 67 66 66 67 66 66 68 68 69 71 73 74 75 75 75 74 72 72 72 69 67 66 61 57 59 63 63 57 46 37 33 30 28 29 30 30 31 35 38 39 38 34 33 33 33 31 28 30 33 35
51 57 64 67 72 78 87 93 95 92 84 80 82 80 77 73 70 64 55 51 47 44 46 48 50 53 54 54 56 58 59 60 60 60 61 64 66 65 63 62 60 60 63 64 66 69 69 67 65 67 69 68 68 68 68 69 71 72 73 73 73 72 71 70 70 69 66 63 60 58 57 60 63 62 56 45 38 32 28 28 29 29 30 33 37 39 40 37 34 33 33 33 31 29 31 34 36
50 57 64 69 73 78 88 94 93 88 83 82 83 80 77 74 72 65 55 53 50 44 43 46 50 53 53 54 58 59 58 58 58 59 61 63 65 63 61 59 59 61 64 67 68 69 69 66 66 68 69 69 69 68 68 68 70 71 71 72 71 70 69 68 67 65 62 60 58 58 59 62 63 61 54 46 39 31 29 29 29 29 32 36 38 40 39 36 34 33 33 33 31 31 33 35 37
50 56 63 70 72 77 88 94 91 87 84 84 83 81 79 76 73 65 56 55 52 45 42 46 51 53 53 54 58 58 57 58 59 59 61 63 64 63 61 59 60 61 64 69 70 70 69 66 67 69 69 68 68 67 67 67 69 71 70 70 68 67 68 68 66 63 61 59 58 59 61 62 62 58 53 46 38 32 31 30 30 31 34 38 39 39 39 36 34 33 33 33 31 31 33 35 37
52 57 61 67 71 75 84 88 87 87 88 86 84 82 80 78 73 65 58 56 52 46 46 49 50 52 53 55 58 57 56 58 59 59 60 61 62 63 61 59 60 61 63 68 70 71 69 67 67 69 69 68 67 66 65 66 69 71 70 69 67 66 67 67 65 62 60 60 60 60 62 62 59 56 50 44 37 33 32 31 31 33 36 39 39 38 38 35 34 33 34 32 30 31 33 35 37
52 58 61 66 71 75 79 83 83 85 87 87 85 83 81 79 73 64 59 57 52 48 50 52 50 52 53 54 57 55 55 57 57 57 59 60 61 62 61 60 60 60 64 69 70 71 70 68 67 68 69 69 68 66 63 65 67 69 70 70 69 67 66 66 65 63 62 62 62 62 62 61 58 54 49 42 37 35 34 32 32 35 37 39 38 37 36 35 34 33 34 32 31 32 33 34 37
49 54 59 64 69 73 75 79 81 82 86 88 87 84 83 81 73 65 62 59 53 49 53 53 50 51 54 55 55 53 54 57 56 56 58 58 58 58 58 58 59 61 65 68 69 71 71 67 66 68 70 69 66 64 61 63 65 67 68 69 69 68 66 66 66 65 64 63 63 63 61 58 55 51 46 42 39 39 38 35 34 37 38 38 35 34 35 34 33 34 34 32 31 32 33 34 36
46 52 57 62 69 73 74 75 78 81 86 88 87 87 85 81 74 68 64 60 54 51 53 53 50 50 54 56 54 51 54 56 56 56 57 56 56 56 56 57 58 60 62 66 67 69 67 65 66 68 68 66 63 60 59 60 64 66 66 67 67 66 65 66 66 66 65 63 61 59 57 54 50 47 44 42 42 43 41 39 39 39 38 37 35 34 34 34 33 35 34 32 31 32 33 34 36
48 53 56 65 72 75 76 76 77 82 87 89 89 89 85 80 76 71 64 60 56 55 53 50 48 48 52 55 52 50 51 53 54 56 55 55 56 56 57 59 60 60 60 64 65 64 64 64 65 65 65 64 60 57 56 57 61 65 65 64 64 63 62 63 64 65 64 61 58 56 54 52 49 46 44 44 45 45 43 42 42 41 39 36 34 33 34 34 34 35 35 32 31 32 33 34 35
52 55 59 67 72 72 73 74 78 85 90 91 91 91 84 77 78 72 65 62 57 56 53 46 45 44 48 53 50 48 49 51 53 54 54 55 56 57 58 59 61 61 60 61 62 60 61 61 61 62 62 61 58 55 54 54 57 61 63 63 62 62 61 61 61 61 61 59 57 55 53 52 49 47 47 47 47 46 45 44 42 40 38 34 33 33 34 34 35 35 35 32 32 33 33 34 35
53 58 64 68 68 69 70 74 82 89 93 93 92 91 84 78 79 73 67 66 59 56 54 46 42 42 45 49 49 47 47 50 52 53 54 55 56 57 56 58 60 62 60 59 59 59 58 57 58 59 57 55 52 51 51 53 55 56 59 62 62 61 60 60 60 59 59 58 56 55 52 51 50 50 50 48 47 46 45 44 41 38 35 33 32 32 33 35 36 37 36 34 33 33 33 34 35
54 58 65 68 68 69 70 77 86 90 92 93 92 91 87 80 80 75 69 68 62 57 57 50 44 42 43 46 48 46 46 49 50 52 54 54 56 56 55 56 59 61 60 57 56 57 56 55 56 56 51 48 46 46 47 50 53 54 55 59 61 61 60 59 59 58 57 56 55 54 52 52 51 51 50 49 48 47 45 43 40 37 34 33 32 33 34 35 37 37 37 36 34 34 34 33 34
57 60 65 68 66 68 71 77 84 86 90 92 91 91 89 83 80 77 71 68 64 60 58 54 48 44 43 45 46 45 45 47 49 51 53 53 55 56 54 55 58 59 58 55 54 55 55 52 52 52 47 44 45 44 45 48 49 51 53 55 59 60 61 60 59 58 57 56 54 52 51 50 49 48 48 47 46 45 44 42 40 38 35 33 33 34 34 37 37 37 39 38 36 34 34 33 33
55 58 64 67 66 69 72 78 84 84 89 92 91 91 89 85 81 78 74 68 64 62 58 56 53 48 45 45 45 44 43 46 48 50 51 52 55 56 54 55 57 57 56 54 54 54 52 50 50 50 47 45 46 45 45 46 47 49 51 54 58 60 60 60 60 58 56 53 51 49 48 46 45 44 43 43 43 42 42 42 40 37 35 35 34 33 34 37 37 38 40 40 39 36 34 33 32
49 53 59 63 65 70 73 80 86 85 88 91 87 89 89 86 83 78 75 69 65 62 58 57 56 52 48 44 44 43 42 45 48 49 51 52 54 55 54 55 56 56 55 53 53 52 51 50 50 50 48 46 46 44 44 45 46 49 52 55 57 57 57 57 55 53 51 49 47 46 45 43 42 41 40 40 41 41 41 41 39 36 35 35 35 33 35 37 37 38 42 42 42 38 35 32 31
50 50 54 56 58 66 74 81 86 86 89 92 88 88 90 87 84 79 74 70 65 62 60 57 57 55 50 45 43 43 42 46 48 49 52 51 52 54 54 54 56 56 55 52 51 51 50 50 50 50 49 48 46 43 42 45 47 49 52 53 53 52 51 51 49 47 46 45 44 43 42 41 40 39 40 41 41 41 40 40 39 37 35 36 35 33 34 36 37 39 42 43 43 40 37 33 31
51 50 51 52 54 64 73 80 86 88 88 92 92 92 92 87 85 81 75 70 66 63 62 59 57 56 52 45 42 42 43 46 48 50 52 52 52 54 53 54 56 57 55 52 50 50 50 50 50 50 49 49 48 43 41 44 45 47 49 50 49 48 48 48 47 44 42 42 41 40 40 40 40 40 41 42 41 39 39 38 37 36 36 36 36 34 35 36 37 39 41 43 42 40 39 36 33
46 51 53 53 56 62 70 79 86 88 89 91 92 93 93 89 85 82 76 70 66 64 62 60 57 56 52 46 42 42 42 44 47 49 52 53 52 53 53 53 55 56 56 52 49 50 50 50 50 49 49 49 49 45 41 41 42 42 45 47 47 47 48 48 47 43 40 40 40 40 41 42 41 41 41 41 39 38 38 37 37 36 36 36 36 36 37 38 38 39 41 42 42 41 40 38 36
42 49 54 58 62 60 64 79 86 86 90 92 92 91 92 90 87 83 79 73 69 67 64 59 57 55 51 46 42 40 40 42 45 47 51 54 52 53 53 52 54 56 55 52 50 49 49 49 49 49 48 49 49 45 40 39 39 39 42 44 46 46 47 48 47 44 42 42 42 42 43 43 42 42 41 39 38 37 36 37 37 36 36 37 37 37 39 40 40 41 42 42 42 42 41 39 37
42 48 51 57 61 57 61 77 86 89 90 89 90 93 89 86 85 83 81 76 71 71 67 59 55 52 51 47 41 39 39 41 42 45 50 53 51 52 53 52 54 55 55 53 50 49 49 49 48 48 47 48 48 44 40 38 37 37 37 39 42 43 45 47 47 46 45 44 43 42 42 42 41 40 39 37 36 35 35 35 36 37 37 38 38 38 39 41 41 42 43 43 42 41 41 41 39
43 52 55 56 59 60 63 73 84 91 93 88 89 95 92 85 82 80 78 77 73 73 72 62 53 49 48 45 40 38 40 41 41 42 47 52 51 51 53 53 52 53 54 53 50 49 48 48 47 47 47 48 46 42 40 38 36 36 35 36 38 40 42 44 45 45 44 42 41 40 40 40 40 39 37 36 35 34 33 34 36 37 39 40 39 38 39 41 42 43 43 43 43 42 41 42 41
40 56 65 61 61 63 64 71 82 90 94 91 89 94 94 89 84 78 75 76 74 75 76 66 54 47 44 42 40 39 40 41 41 41 46 52 52 50 52 52 51 51 53 52 50 48 47 47 46 46 47 47 44 40 39 37 36 36 36 35 36 38 39 40 42 42 41 40 38 37 37 37 38 38 37 35 34 34 34 34 36 38 41 41 40 39 39 41 42 43 44 44 45 45 43 42 41
36 57 70 68 67 68 66 71 82 88 90 91 90 93 95 93 88 81 76 76 76 76 78 71 58 48 43 42 41 40 40 39 40 41 45 50 50 49 51 51 50 49 50 51 50 48 45 45 45 46 48 47 44 39 37 37 36 35 35 35 35 35 36 37 38 38 37 36 35 35 34 35 37 37 36 34 34 35 35 35 37 38 40 41 41 40 39 41 43 43 44 44 46 47 46 44 43
39 56 69 70 70 70 67 69 77 85 87 89 90 90 94 93 89 85 80 77 75 77 79 74 61 49 45 43 43 42 41 40 40 41 44 49 49 48 50 51 50 49 48 49 50 47 44 44 45 45 46 47 45 39 38 37 36 36 36 35 34 33 33 34 35 35 34 33 32 32 31 32 33 35 35 34 34 36 37 38 38 38 39 40 41 42 40 41 43 44 44 45 45 47 47 47 45
39 51 65 69 67 65 66 69 74 81 84 84 84 85 89 90 87 88 85 78 73 75 79 75 63 52 47 44 43 43 45 44 42 41 42 45 47 47 49 50 50 49 48 48 49 46 43 43 44 44 45 46 44 41 39 39 37 37 37 35 33 32 31 33 35 36 36 33 30 29 29 29 30 31 33 34 35 38 39 40 39 39 40 40 41 42 41 41 42 43 44 45 45 46 47 47 46
35 45 60 68 67 65 67 71 73 76 78 79 79 80 85 85 81 82 82 78 72 72 78 76 63 54 48 46 44 44 46 46 44 41 40 43 45 46 48 49 49 48 47 48 48 45 43 42 43 44 44 45 45 42 40 40 39 37 37 36 34 32 32 32 34 36 37 35 31 28 28 28 28 29 30 32 34 37 38 39 39 39 39 40 40 41 41 41 41 42 43 43 44 45 45 45 46
31 39 51 63 71 68 68 72 70 69 71 75 78 81 85 85 79 76 76 77 75 72 74 73 63 54 48 46 45 44 45 47 45 43 41 43 44 46 47 49 49 47 47 48 48 46 44 42 42 42 43 44 44 43 42 41 39 37 38 37 36 34 33 33 33 34 35 34 32 31 31 29 28 28 29 31 33 35 36 36 36 35 35 37 40 41 41 40 40 40 41 43 43 43 43 44 44
27 35 44 59 70 64 62 69 68 65 69 73 76 80 85 81 74 72 72 74 77 74 72 71 63 55 49 47 45 44 45 46 46 44 42 42 43 45 46 47 49 47 46 48 48 47 46 44 42 41 41 42 43 42 42 41 40 38 38 39 38 36 35 34 33 33 34 33 32 33 34 32 30 30 31 32 33 34 35 35 34 34 33 35 37 38 40 41 41 40 40 40 41 41 41 42 43
26 34 44 55 62 56 58 68 67 64 69 71 73 80 84 78 70 70 69 70 74 74 74 73 65 57 51 48 47 45 45 46 47 44 43 42 42 43 46 46 47 47 47 48 49 48 48 46 43 41 41 41 41 42 41 40 40 39 39 42 42 40 37 35 34 33 33 32 32 32 33 32 31 31 32 32 32 34 35 35 35 37 37 37 37 38 39 40 42 42 41 40 39 40 41 41 42
25 31 44 52 53 50 56 65 63 63 71 75 78 80 78 75 72 70 67 68 70 73 75 75 70 63 56 51 49 48 47 46 47 46 44 43 42 42 46 45 45 47 47 49 49 49 49 47 45 42 42 42 42 42 41 39 39 40 41 43 45 45 43 39 37 34 33 33 33 33 32 31 30 31 31 31 31 33 36 37 37 39 39 40 39 40 40 40 40 41 42 41 40 39 40 40 40
31 36 48 52 46 44 52 61 64 67 70 74 79 77 71 70 70 68 68 69 70 72 75 76 74 68 61 55 52 49 48 48 47 47 46 45 44 43 45 45 46 46 47 49 50 50 49 49 47 44 42 42 42 41 41 40 39 39 41 43 45 48 48 44 39 36 35 34 35 34 33 32 31 31 32 32 32 33 36 39 41 41 41 41 40 41 42 41 41 40 40 40 40 39 38 38 37
39 44 50 49 44 47 55 63 68 70 68 67 73 73 68 67 67 68 69 70 72 74 75 77 77 73 65 59 55 51 49 49 48 48 47 47 47 45 45 46 46 45 45 48 50 50 50 49 48 47 44 42 41 40 40 40 39 39 39 40 42 44 47 45 41 38 37 35 35 35 35 34 34 32 32 32 33 33 35 39 42 42 42 41 41 41 42 42 41 40 39 39 39 38 36 35 34
41 47 49 48 49 53 59 65 69 69 65 64 70 73 71 68 69 70 71 70 73 74 75 77 78 76 69 63 59 55 50 49 48 49 49 49 48 47 47 47 47 45 45 46 47 49 49 48 49 48 46 43 41 39 38 37 37 37 36 36 38 39 41 43 41 39 38 37 36 36 37 37 37 36 35 35 35 34 35 37 40 41 41 41 42 41 42 43 42 42 42 41 40 39 37 36 35
40 47 50 54 61 64 65 69 68 64 60 60 67 73 72 69 68 68 68 70 72 72 74 77 79 78 73 66 63 58 53 51 50 51 51 50 49 48 47 48 49 48 46 46 47 46 47 48 49 49 48 45 42 41 39 37 36 35 34 34 35 35 36 39 41 39 39 39 39 38 38 39 39 39 39 39 38 36 35 35 36 37 38 40 40 41 42 43 43 44 45 44 42 41 40 39 38
40 48 54 58 65 68 71 72 64 58 58 60 66 70 69 67 67 66 65 67 70 72 72 75 79 80 76 70 66 62 57 54 51 52 53 52 50 49 48 48 50 50 48 47 47 45 45 46 48 49 49 47 44 43 41 40 38 37 36 36 36 36 36 38 40 40 40 40 41 41 40 41 41 41 41 41 41 39 36 35 34 34 35 35 37 37 39 41 43 43 44 44 43 41 41 40 40
49 53 58 60 61 64 71 74 66 58 57 60 63 65 65 68 68 67 67 66 67 70 71 74 78 80 78 73 69 65 61 56 53 53 53 54 53 51 49 49 50 52 51 49 47 46 44 44 45 48 49 49 47 45 42 42 41 40 39 39 40 38 37 38 39 40 40 40 41 42 42 43 43 43 43 42 42 41 39 37 36 35 34 33 34 35 36 37 39 40 40 41 41 40 39 38 37
59 59 59 58 59 61 67 71 65 58 59 61 61 62 66 70 70 68 68 67 67 69 70 72 75 78 79 75 71 68 64 59 56 54 54 55 55 53 51 50 50 51 51 50 47 45 45 44 44 45 47 48 48 46 45 43 41 41 40 41 41 40 38 38 39 40 40 39 41 42 43 44 44 44 44 42 42 42 41 40 39 37 36 35 34 34 34 34 35 36 37 37 37 37 36 35 35